Location: Bucquoy
(50.1391°N, 2.7097°E)
Time: 23:52:27
(UTC+00:00)

Resurs 1-4 Rocket - Pass Details

Date: 06 May 2021
Orbit: 800 x 814 km, 98.6° (Epoch: 21 June)

Event Time Altitude Azimuth Distance (km) Brightness Sun altitude
Rises 03:02:59 0° 6° (N) 3,324 6.1 -10.5°
Reaches altitude 10° 03:05:47 10° 351° (N) 2,388 5.0 -10.1°
Maximum altitude 03:09:43 22° 303° (WNW) 1,698 3.6 -9.7°
Drops below altitude 10° 03:13:38 10° 254° (WSW) 2,377 4.0 -9.2°
Enters shadow 03:13:52 - 253° (WSW) 2,445 4.0 -9.2°
